{"data":{"norad_id":87239,"epoch":"2026-05-22T21:04:51.523968Z","epoch_age_seconds":265131,"freshness":"STALE","line1":"1 87239U          26142.87837412  .00007281  00000+0  16798-2 0  9994","line2":"2 87239  82.8719 305.6253 0018030 243.8677 116.0669 14.55086285651284","mean_motion":14.55086285,"eccentricity":0.001803,"inclination_deg":82.8719,"raan_deg":305.6253,"arg_perigee_deg":243.8677,"mean_anomaly_deg":116.0669,"bstar":0.0016798,"rev_number":65128,"period_min":98.96320340893,"perigee_km":696.30629901789,"apogee_km":721.86281996141,"semimajor_km":7087.2215594897,"source":"CELESTRAK","updated_at":"2026-05-25T13:38:11.665532Z"}}